Ora Direzione Vento Velocita' Vento Media Vento Raffica Max. Temperatura Wind Chill Pioggia Pressione
23:44:23.0360 °(N)0.0 Kts0.1 Kts27.9 Kts10.7 °C0.0 °C0.0 mm1022.4 Hpa
23:22:34.0360 °(N)0.0 Kts0.1 Kts27.9 Kts10.8 °C0.0 °C0.0 mm1022.5 Hpa
23:02:39.0360 °(N)0.0 Kts0.1 Kts27.9 Kts10.8 °C0.0 °C0.0 mm1022.5 Hpa
22:42:53.0360 °(N)0.0 Kts0.1 Kts27.9 Kts10.9 °C0.0 °C0.0 mm1022.2 Hpa
22:22:51.0360 °(N)0.0 Kts0.1 Kts27.9 Kts10.9 °C0.0 °C0.0 mm1022.4 Hpa
22:02:52.0360 °(N)0.0 Kts0.1 Kts27.9 Kts11.1 °C0.0 °C0.0 mm1022.5 Hpa
21:43:10.0360 °(N)0.0 Kts0.1 Kts27.9 Kts11.3 °C0.0 °C0.0 mm1022.4 Hpa
21:23:29.0360 °(N)0.0 Kts0.1 Kts27.9 Kts11.6 °C0.0 °C0.0 mm1022.4 Hpa
21:03:36.0360 °(N)0.0 Kts0.1 Kts27.9 Kts11.6 °C0.0 °C0.0 mm1022.4 Hpa
20:43:53.0360 °(N)0.0 Kts0.1 Kts27.9 Kts11.6 °C0.0 °C0.0 mm1022.4 Hpa
20:24:19.0360 °(N)0.0 Kts0.1 Kts27.9 Kts11.6 °C0.0 °C0.0 mm1022.2 Hpa
20:02:20.0360 °(N)0.0 Kts0.1 Kts27.9 Kts12.2 °C0.0 °C0.0 mm1022.3 Hpa
19:42:32.0360 °(N)0.0 Kts0.1 Kts27.9 Kts12.1 °C0.0 °C0.0 mm1022.2 Hpa
19:22:38.0360 °(N)0.0 Kts0.1 Kts27.9 Kts12.3 °C0.0 °C0.0 mm1022.2 Hpa
19:02:58.0360 °(N)0.0 Kts0.1 Kts27.9 Kts12.8 °C0.0 °C0.0 mm1022.0 Hpa
18:43:06.0360 °(N)0.0 Kts0.1 Kts27.9 Kts13.1 °C0.0 °C0.0 mm1022.1 Hpa
18:23:30.0360 °(N)0.0 Kts0.1 Kts27.9 Kts13.8 °C0.0 °C0.0 mm1022.0 Hpa
18:03:37.0360 °(N)0.0 Kts0.1 Kts27.9 Kts15.2 °C0.0 °C0.0 mm1022.0 Hpa
17:43:49.0360 °(N)0.0 Kts0.1 Kts27.9 Kts15.3 °C0.0 °C0.0 mm1021.9 Hpa
17:24:11.0360 °(N)0.0 Kts0.1 Kts27.9 Kts15.3 °C0.0 °C0.0 mm1021.7 Hpa